Year,Month,Day,Hour,Minute,Value (Times are PST for temperature in C)
2019,10,26,00,00,5.40
2019,10,26,00,01,5.30
2019,10,26,00,02,5.20
2019,10,26,00,03,5.20
2019,10,26,00,04,5.20
2019,10,26,00,05,5.20
2019,10,26,00,06,5.20
2019,10,26,00,07,5.20
2019,10,26,00,08,5.20
2019,10,26,00,09,5.20
2019,10,26,00,10,5.20
2019,10,26,00,11,5.20
2019,10,26,00,12,5.10
2019,10,26,00,13,5.10
2019,10,26,00,14,5.10
2019,10,26,00,15,5.00
2019,10,26,00,16,5.00
2019,10,26,00,17,4.90
2019,10,26,00,18,4.90
2019,10,26,00,19,4.80
2019,10,26,00,20,4.80
2019,10,26,00,21,4.80
2019,10,26,00,22,4.80
2019,10,26,00,23,4.80
2019,10,26,00,24,4.90
2019,10,26,00,25,4.90
2019,10,26,00,26,4.90
2019,10,26,00,27,4.90
2019,10,26,00,28,4.90
2019,10,26,00,29,4.90
2019,10,26,00,30,4.90
2019,10,26,00,31,4.90
2019,10,26,00,32,4.90
2019,10,26,00,33,4.80
2019,10,26,00,34,4.80
2019,10,26,00,35,4.80
2019,10,26,00,36,4.70
2019,10,26,00,37,4.70
2019,10,26,00,38,4.70
2019,10,26,00,39,4.70
2019,10,26,00,40,4.70
2019,10,26,00,41,4.70
2019,10,26,00,42,4.70
2019,10,26,00,43,4.70
2019,10,26,00,44,4.70
2019,10,26,00,45,4.70
2019,10,26,00,46,4.70
2019,10,26,00,47,4.70
2019,10,26,00,48,4.60
2019,10,26,00,49,4.60
2019,10,26,00,50,4.50
2019,10,26,00,51,4.50
2019,10,26,00,52,4.40
2019,10,26,00,53,4.30
2019,10,26,00,54,4.30
2019,10,26,00,55,4.30
2019,10,26,00,56,4.30
2019,10,26,00,57,4.40
2019,10,26,00,58,4.40
2019,10,26,00,59,4.40
2019,10,26,01,00,4.40
2019,10,26,01,01,4.40
2019,10,26,01,02,4.40
2019,10,26,01,03,4.40
2019,10,26,01,04,4.30
2019,10,26,01,05,4.20
2019,10,26,01,06,4.10
2019,10,26,01,07,4.00
2019,10,26,01,08,4.00
2019,10,26,01,09,4.00
2019,10,26,01,10,4.00
2019,10,26,01,11,4.00
2019,10,26,01,12,4.10
2019,10,26,01,13,4.10
2019,10,26,01,14,4.20
2019,10,26,01,15,4.20
2019,10,26,01,16,4.30
2019,10,26,01,17,4.30
2019,10,26,01,18,4.30
2019,10,26,01,19,4.30
2019,10,26,01,20,4.20
2019,10,26,01,21,4.10
2019,10,26,01,22,4.10
2019,10,26,01,23,4.00
2019,10,26,01,24,4.00
2019,10,26,01,25,3.90
2019,10,26,01,26,3.90
2019,10,26,01,27,3.90
2019,10,26,01,28,3.90
2019,10,26,01,29,3.90
2019,10,26,01,30,3.90
2019,10,26,01,31,3.90
2019,10,26,01,32,3.90
2019,10,26,01,33,3.90
2019,10,26,01,34,3.90
2019,10,26,01,35,3.90
2019,10,26,01,36,3.90
2019,10,26,01,37,3.90
2019,10,26,01,38,3.80
2019,10,26,01,39,3.80
2019,10,26,01,40,3.70
2019,10,26,01,41,3.70
2019,10,26,01,42,3.70
2019,10,26,01,43,3.70
2019,10,26,01,44,3.70
2019,10,26,01,45,3.70
2019,10,26,01,46,3.70
2019,10,26,01,47,3.70
2019,10,26,01,48,3.80
2019,10,26,01,49,3.80
2019,10,26,01,50,3.80
2019,10,26,01,51,3.80
2019,10,26,01,52,3.70
2019,10,26,01,53,3.70
2019,10,26,01,54,3.70
2019,10,26,01,55,3.70
2019,10,26,01,56,3.70
2019,10,26,01,57,3.70
2019,10,26,01,58,3.70
2019,10,26,01,59,3.70
2019,10,26,02,00,3.70
2019,10,26,02,01,3.70
2019,10,26,02,02,3.70
2019,10,26,02,03,3.70
2019,10,26,02,04,3.70
2019,10,26,02,05,3.70
2019,10,26,02,06,3.70
2019,10,26,02,07,3.70
2019,10,26,02,08,3.70
2019,10,26,02,09,3.60
2019,10,26,02,10,3.60
2019,10,26,02,11,3.60
2019,10,26,02,12,3.50
2019,10,26,02,13,3.50
2019,10,26,02,14,3.40
2019,10,26,02,15,3.30
2019,10,26,02,16,3.30
2019,10,26,02,17,3.30
2019,10,26,02,18,3.30
2019,10,26,02,19,3.40
2019,10,26,02,20,3.40
2019,10,26,02,21,3.50
2019,10,26,02,22,3.50
2019,10,26,02,23,3.50
2019,10,26,02,24,3.60
2019,10,26,02,25,3.60
2019,10,26,02,26,3.60
2019,10,26,02,27,3.50
2019,10,26,02,28,3.50
2019,10,26,02,29,3.40
2019,10,26,02,30,3.40
2019,10,26,02,31,3.40
2019,10,26,02,32,3.40
2019,10,26,02,33,3.30
2019,10,26,02,34,3.30
2019,10,26,02,35,3.30
2019,10,26,02,36,3.20
2019,10,26,02,37,3.20
2019,10,26,02,38,3.20
2019,10,26,02,39,3.20
2019,10,26,02,40,3.20
2019,10,26,02,41,3.20
2019,10,26,02,42,3.20
2019,10,26,02,43,3.20
2019,10,26,02,44,3.20
2019,10,26,02,45,3.10
2019,10,26,02,46,3.20
2019,10,26,02,47,3.20
2019,10,26,02,48,3.20
2019,10,26,02,49,3.20
2019,10,26,02,50,3.20
2019,10,26,02,51,3.20
2019,10,26,02,52,3.20
2019,10,26,02,53,3.20
2019,10,26,02,54,3.20
2019,10,26,02,55,3.20
2019,10,26,02,56,3.20
2019,10,26,02,57,3.20
2019,10,26,02,58,3.20
2019,10,26,02,59,3.20
2019,10,26,03,00,3.30
2019,10,26,03,01,3.30
2019,10,26,03,02,3.30
2019,10,26,03,03,3.20
2019,10,26,03,04,3.20
2019,10,26,03,05,3.20
2019,10,26,03,06,3.20
2019,10,26,03,07,3.20
2019,10,26,03,08,3.20
2019,10,26,03,09,3.10
2019,10,26,03,10,3.10
2019,10,26,03,11,3.00
2019,10,26,03,12,2.90
2019,10,26,03,13,2.90
2019,10,26,03,14,2.90
2019,10,26,03,15,2.90
2019,10,26,03,16,2.90
2019,10,26,03,17,3.00
2019,10,26,03,18,3.00
2019,10,26,03,19,3.10
2019,10,26,03,20,3.10
2019,10,26,03,21,3.10
2019,10,26,03,22,3.10
2019,10,26,03,23,3.00
2019,10,26,03,24,2.90
2019,10,26,03,25,2.90
2019,10,26,03,26,2.90
2019,10,26,03,27,2.90
2019,10,26,03,28,2.90
2019,10,26,03,29,2.90
2019,10,26,03,30,3.00
2019,10,26,03,31,3.00
2019,10,26,03,32,3.10
2019,10,26,03,33,3.10
2019,10,26,03,34,3.20
2019,10,26,03,35,3.20
2019,10,26,03,36,3.20
2019,10,26,03,37,3.10
2019,10,26,03,38,3.10
2019,10,26,03,39,3.10
2019,10,26,03,40,3.10
2019,10,26,03,41,3.10
2019,10,26,03,42,3.10
2019,10,26,03,43,3.00
2019,10,26,03,44,2.90
2019,10,26,03,45,2.80
2019,10,26,03,46,2.80
2019,10,26,03,47,2.80
2019,10,26,03,48,2.80
2019,10,26,03,49,2.80
2019,10,26,03,50,2.80
2019,10,26,03,51,2.80
2019,10,26,03,52,2.80
2019,10,26,03,53,2.80
2019,10,26,03,54,2.90
2019,10,26,03,55,2.90
2019,10,26,03,56,2.90
2019,10,26,03,57,2.90
2019,10,26,03,58,2.90
2019,10,26,03,59,2.90
2019,10,26,04,00,2.90
2019,10,26,04,01,2.90
2019,10,26,04,02,2.90
2019,10,26,04,03,2.90
2019,10,26,04,04,2.80
2019,10,26,04,05,2.80
2019,10,26,04,06,2.90
2019,10,26,04,07,2.90
2019,10,26,04,08,3.00
2019,10,26,04,09,3.10
2019,10,26,04,10,3.10
2019,10,26,04,11,3.10
2019,10,26,04,12,3.10
2019,10,26,04,13,3.10
2019,10,26,04,14,3.10
2019,10,26,04,15,3.00
2019,10,26,04,16,3.00
2019,10,26,04,17,3.00
2019,10,26,04,18,2.90
2019,10,26,04,19,2.80
2019,10,26,04,20,2.80
2019,10,26,04,21,2.80
2019,10,26,04,22,2.80
2019,10,26,04,23,2.80
2019,10,26,04,24,2.80
2019,10,26,04,25,2.70
2019,10,26,04,26,2.70
2019,10,26,04,27,2.70
2019,10,26,04,28,2.60
2019,10,26,04,29,2.60
2019,10,26,04,30,2.60
2019,10,26,04,31,2.60
2019,10,26,04,32,2.60
2019,10,26,04,33,2.60
2019,10,26,04,34,2.60
2019,10,26,04,35,2.60
2019,10,26,04,36,2.60
2019,10,26,04,37,2.70
2019,10,26,04,38,2.70
2019,10,26,04,39,2.60
2019,10,26,04,40,2.60
2019,10,26,04,41,2.50
2019,10,26,04,42,2.50
2019,10,26,04,43,2.50
2019,10,26,04,44,2.50
2019,10,26,04,45,2.60
2019,10,26,04,46,2.60
2019,10,26,04,47,2.50
2019,10,26,04,48,2.50
2019,10,26,04,49,2.50
2019,10,26,04,50,2.60
2019,10,26,04,51,2.70
2019,10,26,04,52,2.80
2019,10,26,04,53,2.90
2019,10,26,04,54,3.10
2019,10,26,04,55,3.20
2019,10,26,04,56,3.20
2019,10,26,04,57,3.20
2019,10,26,04,58,3.20
2019,10,26,04,59,3.20
2019,10,26,05,00,3.20
2019,10,26,05,01,3.20
2019,10,26,05,02,3.20
2019,10,26,05,03,3.20
2019,10,26,05,04,3.30
2019,10,26,05,05,3.30
2019,10,26,05,06,3.30
2019,10,26,05,07,3.30
2019,10,26,05,08,3.30
2019,10,26,05,09,3.30
2019,10,26,05,10,3.30
2019,10,26,05,11,3.30
2019,10,26,05,12,3.30
2019,10,26,05,13,3.20
2019,10,26,05,14,3.20
2019,10,26,05,15,3.10
2019,10,26,05,16,3.10
2019,10,26,05,17,3.10
2019,10,26,05,18,3.00
2019,10,26,05,19,2.90
2019,10,26,05,20,2.90
2019,10,26,05,21,2.90
2019,10,26,05,22,2.90
2019,10,26,05,23,2.80
2019,10,26,05,24,2.80
2019,10,26,05,25,2.80
2019,10,26,05,26,2.80
2019,10,26,05,27,2.80
2019,10,26,05,28,2.80
2019,10,26,05,29,2.80
2019,10,26,05,30,2.80
2019,10,26,05,31,2.80
2019,10,26,05,32,2.70
2019,10,26,05,33,2.70
2019,10,26,05,34,2.70
2019,10,26,05,35,2.60
2019,10,26,05,36,2.60
2019,10,26,05,37,2.70
2019,10,26,05,38,2.70
2019,10,26,05,39,2.70
2019,10,26,05,40,2.80
2019,10,26,05,41,2.80
2019,10,26,05,42,3.00
2019,10,26,05,43,3.10
2019,10,26,05,44,3.30
2019,10,26,05,45,3.40
2019,10,26,05,46,3.60
2019,10,26,05,47,3.80
2019,10,26,05,48,3.90
2019,10,26,05,49,4.10
2019,10,26,05,50,4.20
2019,10,26,05,51,4.40
2019,10,26,05,52,4.60
2019,10,26,05,53,4.80
2019,10,26,05,54,4.90
2019,10,26,05,55,5.10
2019,10,26,05,56,5.20
2019,10,26,05,57,5.30
2019,10,26,05,58,5.40
2019,10,26,05,59,5.50
2019,10,26,06,00,5.50
2019,10,26,06,01,5.60
2019,10,26,06,02,5.60
2019,10,26,06,03,5.50
2019,10,26,06,04,5.50
2019,10,26,06,05,5.60
2019,10,26,06,06,5.60
2019,10,26,06,07,5.50
2019,10,26,06,08,5.40
2019,10,26,06,09,5.30
2019,10,26,06,10,5.30
2019,10,26,06,11,5.30
2019,10,26,06,12,5.30
2019,10,26,06,13,5.30
2019,10,26,06,14,5.20
2019,10,26,06,15,5.20
2019,10,26,06,16,5.20
2019,10,26,06,17,5.30
2019,10,26,06,18,5.40
2019,10,26,06,19,5.50
2019,10,26,06,20,5.50
2019,10,26,06,21,5.50
2019,10,26,06,22,5.60
2019,10,26,06,23,5.50
2019,10,26,06,24,5.40
2019,10,26,06,25,5.50
2019,10,26,06,26,5.60
2019,10,26,06,27,5.70
2019,10,26,06,28,5.90
2019,10,26,06,29,6.00
2019,10,26,06,30,6.00
2019,10,26,06,31,6.10
2019,10,26,06,32,6.10
2019,10,26,06,33,6.10
2019,10,26,06,34,6.00
2019,10,26,06,35,5.80
2019,10,26,06,36,5.60
2019,10,26,06,37,5.40
2019,10,26,06,38,5.20
2019,10,26,06,39,5.10
2019,10,26,06,40,5.10
2019,10,26,06,41,5.00
2019,10,26,06,42,4.90
2019,10,26,06,43,4.80
2019,10,26,06,44,4.80
2019,10,26,06,45,4.90
2019,10,26,06,46,4.90
2019,10,26,06,47,5.00
2019,10,26,06,48,5.10
2019,10,26,06,49,5.10
2019,10,26,06,50,5.20
2019,10,26,06,51,5.30
2019,10,26,06,52,5.40
2019,10,26,06,53,5.40
2019,10,26,06,54,5.50
2019,10,26,06,55,5.40
2019,10,26,06,56,5.40
2019,10,26,06,57,5.30
2019,10,26,06,58,5.30
2019,10,26,06,59,5.40
2019,10,26,07,00,5.40
2019,10,26,07,01,5.30
2019,10,26,07,02,5.30
2019,10,26,07,03,5.30
2019,10,26,07,04,5.30
2019,10,26,07,05,5.20
2019,10,26,07,06,5.20
2019,10,26,07,07,5.30
2019,10,26,07,08,5.30
2019,10,26,07,09,5.30
2019,10,26,07,10,5.30
2019,10,26,07,11,5.30
2019,10,26,07,12,5.40
2019,10,26,07,13,5.40
2019,10,26,07,14,5.40
2019,10,26,07,15,5.50
2019,10,26,07,16,5.50
2019,10,26,07,17,5.60
2019,10,26,07,18,5.60
2019,10,26,07,19,5.60
2019,10,26,07,20,5.60
2019,10,26,07,21,5.60
2019,10,26,07,22,5.60
2019,10,26,07,23,5.60
2019,10,26,07,24,5.60
2019,10,26,07,25,5.60
2019,10,26,07,26,5.50
2019,10,26,07,27,5.50
2019,10,26,07,28,5.50
2019,10,26,07,29,5.50
2019,10,26,07,30,5.60
2019,10,26,07,31,5.50
2019,10,26,07,32,5.60
2019,10,26,07,33,5.60
2019,10,26,07,34,5.60
2019,10,26,07,35,5.60
2019,10,26,07,36,5.60
2019,10,26,07,37,5.70
2019,10,26,07,38,5.70
2019,10,26,07,39,5.70
2019,10,26,07,40,5.80
2019,10,26,07,41,5.80
2019,10,26,07,42,5.90
2019,10,26,07,43,5.90
2019,10,26,07,44,6.00
2019,10,26,07,45,6.10
2019,10,26,07,46,6.10
2019,10,26,07,47,6.10
2019,10,26,07,48,6.20
2019,10,26,07,49,6.20
2019,10,26,07,50,6.20
2019,10,26,07,51,6.10
2019,10,26,07,52,6.10
2019,10,26,07,53,6.10
2019,10,26,07,54,6.00
2019,10,26,07,55,6.00
2019,10,26,07,56,6.00
2019,10,26,07,57,5.90
2019,10,26,07,58,5.90
2019,10,26,07,59,5.80
2019,10,26,08,00,5.80
2019,10,26,08,01,5.80
2019,10,26,08,02,5.80
2019,10,26,08,03,5.70
2019,10,26,08,04,5.70
2019,10,26,08,05,5.70
2019,10,26,08,06,5.70
2019,10,26,08,07,5.70
2019,10,26,08,08,5.70
2019,10,26,08,09,5.70
2019,10,26,08,10,5.70
2019,10,26,08,11,5.70
2019,10,26,08,12,5.80
2019,10,26,08,13,5.80
2019,10,26,08,14,5.90
2019,10,26,08,15,5.90
2019,10,26,08,16,5.90
2019,10,26,08,17,5.90
2019,10,26,08,18,5.90
2019,10,26,08,19,6.00
2019,10,26,08,20,6.10
2019,10,26,08,21,6.20
2019,10,26,08,22,6.30
2019,10,26,08,23,6.40
2019,10,26,08,24,6.60
2019,10,26,08,25,6.70
2019,10,26,08,26,6.80
2019,10,26,08,27,6.90
2019,10,26,08,28,7.10
2019,10,26,08,29,7.20
2019,10,26,08,30,7.30
2019,10,26,08,31,7.30
2019,10,26,08,32,7.30
2019,10,26,08,33,7.30
2019,10,26,08,34,7.30
2019,10,26,08,35,7.30
2019,10,26,08,36,7.20
2019,10,26,08,37,7.20
2019,10,26,08,38,7.10
2019,10,26,08,39,7.10
2019,10,26,08,40,7.00
2019,10,26,08,41,6.90
2019,10,26,08,42,6.90
2019,10,26,08,43,6.80
2019,10,26,08,44,6.70
2019,10,26,08,45,6.60
2019,10,26,08,46,6.50
2019,10,26,08,47,6.50
2019,10,26,08,48,6.40
2019,10,26,08,49,6.40
2019,10,26,08,50,6.30
2019,10,26,08,51,6.30
2019,10,26,08,52,6.40
2019,10,26,08,53,6.40
2019,10,26,08,54,6.40
2019,10,26,08,55,6.50
2019,10,26,08,56,6.60
2019,10,26,08,57,6.70
2019,10,26,08,58,6.80
2019,10,26,08,59,6.80
2019,10,26,09,00,6.90
2019,10,26,09,01,6.90
2019,10,26,09,02,7.00
2019,10,26,09,03,7.00
2019,10,26,09,04,7.00
2019,10,26,09,05,7.10
2019,10,26,09,06,7.10
2019,10,26,09,07,7.30
2019,10,26,09,08,7.40
2019,10,26,09,09,7.50
2019,10,26,09,10,7.50
2019,10,26,09,11,7.60
2019,10,26,09,12,7.70
2019,10,26,09,13,7.70
2019,10,26,09,14,7.70
2019,10,26,09,15,7.80
2019,10,26,09,16,7.80
2019,10,26,09,17,7.80
2019,10,26,09,18,7.90
2019,10,26,09,19,7.90
2019,10,26,09,20,8.00
2019,10,26,09,21,8.00
2019,10,26,09,22,8.10
2019,10,26,09,23,8.10
2019,10,26,09,24,8.10
2019,10,26,09,25,8.10
2019,10,26,09,26,8.10
2019,10,26,09,27,8.20
2019,10,26,09,28,8.30
2019,10,26,09,29,8.40
2019,10,26,09,30,8.50
2019,10,26,09,31,8.60
2019,10,26,09,32,8.70
2019,10,26,09,33,8.80
2019,10,26,09,34,8.90
2019,10,26,09,35,9.00
2019,10,26,09,36,9.10
2019,10,26,09,37,9.10
2019,10,26,09,38,9.10
2019,10,26,09,39,9.10
2019,10,26,09,40,9.20
2019,10,26,09,41,9.20
2019,10,26,09,42,9.20
2019,10,26,09,43,9.20
2019,10,26,09,44,9.30
2019,10,26,09,45,9.30
2019,10,26,09,46,9.30
2019,10,26,09,47,9.40
2019,10,26,09,48,9.40
2019,10,26,09,49,9.40
2019,10,26,09,50,9.40
2019,10,26,09,51,9.40
2019,10,26,09,52,9.50
2019,10,26,09,53,9.50
2019,10,26,09,54,9.50
2019,10,26,09,55,9.50
2019,10,26,09,56,9.50
2019,10,26,09,57,9.50
2019,10,26,09,58,9.50
2019,10,26,09,59,9.50
2019,10,26,10,00,9.60
2019,10,26,10,01,9.60
2019,10,26,10,02,9.60
2019,10,26,10,03,9.60
2019,10,26,10,04,9.70
2019,10,26,10,05,9.70
2019,10,26,10,06,9.70
2019,10,26,10,07,9.70
2019,10,26,10,08,9.70
2019,10,26,10,09,9.80
2019,10,26,10,10,9.80
2019,10,26,10,11,9.90
2019,10,26,10,12,10.00
2019,10,26,10,13,10.00
2019,10,26,10,14,10.10
2019,10,26,10,15,10.10
2019,10,26,10,16,10.10
2019,10,26,10,17,10.10
2019,10,26,10,18,10.10
2019,10,26,10,19,10.10
2019,10,26,10,20,10.10
2019,10,26,10,21,10.10
2019,10,26,10,22,10.10
2019,10,26,10,23,10.10
2019,10,26,10,24,10.10
2019,10,26,10,25,10.10
2019,10,26,10,26,10.10
2019,10,26,10,27,10.10
2019,10,26,10,28,10.10
2019,10,26,10,29,10.10
2019,10,26,10,30,10.10
2019,10,26,10,31,10.00
2019,10,26,10,32,10.00
2019,10,26,10,33,10.00
2019,10,26,10,34,10.00
2019,10,26,10,35,9.90
2019,10,26,10,36,9.90
2019,10,26,10,37,9.90
2019,10,26,10,38,9.90
2019,10,26,10,39,9.90
2019,10,26,10,40,9.90
2019,10,26,10,41,9.90
2019,10,26,10,42,9.90
2019,10,26,10,43,9.90
2019,10,26,10,44,10.00
2019,10,26,10,45,10.00
2019,10,26,10,46,10.10
2019,10,26,10,47,10.10
2019,10,26,10,48,10.20
2019,10,26,10,49,10.20
2019,10,26,10,50,10.20
2019,10,26,10,51,10.30
2019,10,26,10,52,10.30
2019,10,26,10,53,10.30
2019,10,26,10,54,10.30
2019,10,26,10,55,10.40
2019,10,26,10,56,10.40
2019,10,26,10,57,10.50
2019,10,26,10,58,10.50
2019,10,26,10,59,10.60
2019,10,26,11,00,10.60
2019,10,26,11,01,10.60
2019,10,26,11,02,10.50
2019,10,26,11,03,10.50
2019,10,26,11,04,10.50
2019,10,26,11,05,10.50
2019,10,26,11,06,10.50
2019,10,26,11,07,10.50
2019,10,26,11,08,10.40
2019,10,26,11,09,10.40
2019,10,26,11,10,10.40
2019,10,26,11,11,10.40
2019,10,26,11,12,10.40
2019,10,26,11,13,10.40
2019,10,26,11,14,10.40
2019,10,26,11,15,10.40
2019,10,26,11,16,10.40
2019,10,26,11,17,10.40
2019,10,26,11,18,10.40
2019,10,26,11,19,10.40
2019,10,26,11,20,10.40
2019,10,26,11,21,10.40
2019,10,26,11,22,10.40
2019,10,26,11,23,10.40
2019,10,26,11,24,10.40
2019,10,26,11,25,10.40
2019,10,26,11,26,10.40
2019,10,26,11,27,10.50
2019,10,26,11,28,10.50
2019,10,26,11,29,10.50
2019,10,26,11,30,10.50
2019,10,26,11,31,10.50
2019,10,26,11,32,10.50
2019,10,26,11,33,10.50
2019,10,26,11,34,10.60
2019,10,26,11,35,10.70
2019,10,26,11,36,10.70
2019,10,26,11,37,10.70
2019,10,26,11,38,10.70
2019,10,26,11,39,10.80
2019,10,26,11,40,10.80
2019,10,26,11,41,10.80
2019,10,26,11,42,10.80
2019,10,26,11,43,10.80
2019,10,26,11,44,10.90
2019,10,26,11,45,10.90
2019,10,26,11,46,11.00
2019,10,26,11,47,11.10
2019,10,26,11,48,11.10
2019,10,26,11,49,11.20
2019,10,26,11,50,11.20
2019,10,26,11,51,11.20
2019,10,26,11,52,11.20
2019,10,26,11,53,11.30
2019,10,26,11,54,11.30
2019,10,26,11,55,11.40
2019,10,26,11,56,11.40
2019,10,26,11,57,11.40
2019,10,26,11,58,11.40
2019,10,26,11,59,11.40
2019,10,26,12,00,11.40
2019,10,26,12,01,11.40
2019,10,26,12,02,11.30
2019,10,26,12,03,11.30
2019,10,26,12,04,11.30
2019,10,26,12,05,11.30
2019,10,26,12,06,11.20
2019,10,26,12,07,11.20
2019,10,26,12,08,11.20
2019,10,26,12,09,11.20
2019,10,26,12,10,11.20
2019,10,26,12,11,11.30
2019,10,26,12,12,11.30
2019,10,26,12,13,11.30
2019,10,26,12,14,11.30
2019,10,26,12,15,11.30
2019,10,26,12,16,11.30
2019,10,26,12,17,11.30
2019,10,26,12,18,11.30
2019,10,26,12,19,11.40
2019,10,26,12,20,11.40
2019,10,26,12,21,11.40
2019,10,26,12,22,11.50
2019,10,26,12,23,11.50
2019,10,26,12,24,11.50
2019,10,26,12,25,11.60
2019,10,26,12,26,11.50
2019,10,26,12,27,11.50
2019,10,26,12,28,11.50
2019,10,26,12,29,11.50
2019,10,26,12,30,11.60
2019,10,26,12,31,11.60
2019,10,26,12,32,11.60
2019,10,26,12,33,11.60
2019,10,26,12,34,11.60
2019,10,26,12,35,11.60
2019,10,26,12,36,11.60
2019,10,26,12,37,11.60
2019,10,26,12,38,11.60
2019,10,26,12,39,11.60
2019,10,26,12,40,11.60
2019,10,26,12,41,11.70
2019,10,26,12,42,11.70
2019,10,26,12,43,11.70
2019,10,26,12,44,11.80
2019,10,26,12,45,11.80
2019,10,26,12,46,11.90
2019,10,26,12,47,11.90
2019,10,26,12,48,11.90
2019,10,26,12,49,11.90
2019,10,26,12,50,11.90
2019,10,26,12,51,11.90
2019,10,26,12,52,11.90
2019,10,26,12,53,11.90
2019,10,26,12,54,11.90
2019,10,26,12,55,12.00
2019,10,26,12,56,12.00
2019,10,26,12,57,12.10
2019,10,26,12,58,12.10
2019,10,26,12,59,12.20
2019,10,26,13,00,12.20
2019,10,26,13,01,12.20
2019,10,26,13,02,12.30
2019,10,26,13,03,12.40
2019,10,26,13,04,12.50
2019,10,26,13,05,12.50
2019,10,26,13,06,12.60
2019,10,26,13,07,12.60
2019,10,26,13,08,12.50
2019,10,26,13,09,12.50
2019,10,26,13,10,12.50
2019,10,26,13,11,12.50
2019,10,26,13,12,12.60
2019,10,26,13,13,12.70
2019,10,26,13,14,12.80
2019,10,26,13,15,12.80
2019,10,26,13,16,12.80
2019,10,26,13,17,12.80
2019,10,26,13,18,12.90
2019,10,26,13,19,13.00
2019,10,26,13,20,13.10
2019,10,26,13,21,13.10
2019,10,26,13,22,13.00
2019,10,26,13,23,13.00
2019,10,26,13,24,12.90
2019,10,26,13,25,12.80
2019,10,26,13,26,12.80
2019,10,26,13,27,12.80
2019,10,26,13,28,12.80
2019,10,26,13,29,12.80
2019,10,26,13,30,12.80
2019,10,26,13,31,12.80
2019,10,26,13,32,12.80
2019,10,26,13,33,12.80
2019,10,26,13,34,12.80
2019,10,26,13,35,12.80
2019,10,26,13,36,12.80
2019,10,26,13,37,12.80
2019,10,26,13,38,12.90
2019,10,26,13,39,12.90
2019,10,26,13,40,13.00
2019,10,26,13,41,13.00
2019,10,26,13,42,13.10
2019,10,26,13,43,13.20
2019,10,26,13,44,13.20
2019,10,26,13,45,13.10
2019,10,26,13,46,13.10
2019,10,26,13,47,13.10
2019,10,26,13,48,13.10
2019,10,26,13,49,13.20
2019,10,26,13,50,13.10
2019,10,26,13,51,13.10
2019,10,26,13,52,13.10
2019,10,26,13,53,13.00
2019,10,26,13,54,13.00
2019,10,26,13,55,13.00
2019,10,26,13,56,12.90
2019,10,26,13,57,12.90
2019,10,26,13,58,12.90
2019,10,26,13,59,13.00
2019,10,26,14,00,13.00
2019,10,26,14,01,13.00
2019,10,26,14,02,13.00
2019,10,26,14,03,13.00
2019,10,26,14,04,12.90
2019,10,26,14,05,12.90
2019,10,26,14,06,12.90
2019,10,26,14,07,12.90
2019,10,26,14,08,13.00
2019,10,26,14,09,13.00
2019,10,26,14,10,13.00
2019,10,26,14,11,13.10
2019,10,26,14,12,13.10
2019,10,26,14,13,13.10
2019,10,26,14,14,13.10
2019,10,26,14,15,13.10
2019,10,26,14,16,13.10
2019,10,26,14,17,13.20
2019,10,26,14,18,13.20
2019,10,26,14,19,13.20
2019,10,26,14,20,13.20
2019,10,26,14,21,13.20
2019,10,26,14,22,13.20
2019,10,26,14,23,13.10
2019,10,26,14,24,13.10
2019,10,26,14,25,13.10
2019,10,26,14,26,13.10
2019,10,26,14,27,13.10
2019,10,26,14,28,13.10
2019,10,26,14,29,13.10
2019,10,26,14,30,13.10
2019,10,26,14,31,13.10
2019,10,26,14,32,13.10
2019,10,26,14,33,13.20
2019,10,26,14,34,13.20
2019,10,26,14,35,13.20
2019,10,26,14,36,13.20
2019,10,26,14,37,13.20
2019,10,26,14,38,13.20
2019,10,26,14,39,13.20
2019,10,26,14,40,13.20
2019,10,26,14,41,13.20
2019,10,26,14,42,13.20
2019,10,26,14,43,13.20
2019,10,26,14,44,13.20
2019,10,26,14,45,13.20
2019,10,26,14,46,13.30
2019,10,26,14,47,13.30
2019,10,26,14,48,13.30
2019,10,26,14,49,13.30
2019,10,26,14,50,13.20
2019,10,26,14,51,13.20
2019,10,26,14,52,13.30
2019,10,26,14,53,13.30
2019,10,26,14,54,13.30
2019,10,26,14,55,13.30
2019,10,26,14,56,13.30
2019,10,26,14,57,13.30
2019,10,26,14,58,13.20
2019,10,26,14,59,13.20
2019,10,26,15,00,13.20
2019,10,26,15,01,13.30
2019,10,26,15,02,13.20
2019,10,26,15,03,13.20
2019,10,26,15,04,13.20
2019,10,26,15,05,13.20
2019,10,26,15,06,13.20
2019,10,26,15,07,13.30
2019,10,26,15,08,13.30
2019,10,26,15,09,13.30
2019,10,26,15,10,13.30
2019,10,26,15,11,13.30
2019,10,26,15,12,13.30
2019,10,26,15,13,13.20
2019,10,26,15,14,13.20
2019,10,26,15,15,13.10
2019,10,26,15,16,13.00
2019,10,26,15,17,13.00
2019,10,26,15,18,13.00
2019,10,26,15,19,13.10
2019,10,26,15,20,13.20
2019,10,26,15,21,13.20
2019,10,26,15,22,13.20
2019,10,26,15,23,13.10
2019,10,26,15,24,13.00
2019,10,26,15,25,13.00
2019,10,26,15,26,13.00
2019,10,26,15,27,13.10
2019,10,26,15,28,13.10
2019,10,26,15,29,13.10
2019,10,26,15,30,13.10
2019,10,26,15,31,13.00
2019,10,26,15,32,13.00
2019,10,26,15,33,12.90
2019,10,26,15,34,12.90
2019,10,26,15,35,13.00
2019,10,26,15,36,13.00
2019,10,26,15,37,13.00
2019,10,26,15,38,13.00
2019,10,26,15,39,13.00
2019,10,26,15,40,13.00
2019,10,26,15,41,13.00
2019,10,26,15,42,13.10
2019,10,26,15,43,13.10
2019,10,26,15,44,13.10
2019,10,26,15,45,13.10
2019,10,26,15,46,13.00
2019,10,26,15,47,13.00
2019,10,26,15,48,13.00
2019,10,26,15,49,13.10
2019,10,26,15,50,13.00
2019,10,26,15,51,13.00
2019,10,26,15,52,13.00
2019,10,26,15,53,13.00
2019,10,26,15,54,13.10
2019,10,26,15,55,13.10
2019,10,26,15,56,13.10
2019,10,26,15,57,13.10
2019,10,26,15,58,13.10
2019,10,26,15,59,13.10
2019,10,26,16,00,13.10
2019,10,26,16,01,13.10
2019,10,26,16,02,13.10
2019,10,26,16,03,13.10
2019,10,26,16,04,13.00
2019,10,26,16,05,13.00
2019,10,26,16,06,13.00
2019,10,26,16,07,13.00
2019,10,26,16,08,12.90
2019,10,26,16,09,13.00
2019,10,26,16,10,13.00
2019,10,26,16,11,13.00
2019,10,26,16,12,13.00
2019,10,26,16,13,13.00
2019,10,26,16,14,13.00
2019,10,26,16,15,13.00
2019,10,26,16,16,12.90
2019,10,26,16,17,12.80
2019,10,26,16,18,12.80
2019,10,26,16,19,12.80
2019,10,26,16,20,12.80
2019,10,26,16,21,12.80
2019,10,26,16,22,12.80
2019,10,26,16,23,12.80
2019,10,26,16,24,12.80
2019,10,26,16,25,12.80
2019,10,26,16,26,12.80
2019,10,26,16,27,12.80
2019,10,26,16,28,12.80
2019,10,26,16,29,12.80
2019,10,26,16,30,12.80
2019,10,26,16,31,12.80
2019,10,26,16,32,12.80
2019,10,26,16,33,12.80
2019,10,26,16,34,12.80
2019,10,26,16,35,12.80
2019,10,26,16,36,12.80
2019,10,26,16,37,12.80
2019,10,26,16,38,12.80
2019,10,26,16,39,12.80
2019,10,26,16,40,12.80
2019,10,26,16,41,12.80
2019,10,26,16,42,12.80
2019,10,26,16,43,12.70
2019,10,26,16,44,12.80
2019,10,26,16,45,12.70
2019,10,26,16,46,12.70
2019,10,26,16,47,12.70
2019,10,26,16,48,12.70
2019,10,26,16,49,12.70
2019,10,26,16,50,12.70
2019,10,26,16,51,12.70
2019,10,26,16,52,12.70
2019,10,26,16,53,12.70
2019,10,26,16,54,12.60
2019,10,26,16,55,12.60
2019,10,26,16,56,12.60
2019,10,26,16,57,12.60
2019,10,26,16,58,12.60
2019,10,26,16,59,12.60
2019,10,26,17,00,12.60
2019,10,26,17,01,12.60
2019,10,26,17,02,12.60
2019,10,26,17,03,12.60
2019,10,26,17,04,12.60
2019,10,26,17,05,12.60
2019,10,26,17,06,12.50
2019,10,26,17,07,12.50
2019,10,26,17,08,12.50
2019,10,26,17,09,12.50
2019,10,26,17,10,12.40
2019,10,26,17,11,12.40
2019,10,26,17,12,12.40
2019,10,26,17,13,12.40
2019,10,26,17,14,12.30
2019,10,26,17,15,12.30
2019,10,26,17,16,12.30
2019,10,26,17,17,12.30
2019,10,26,17,18,12.30
2019,10,26,17,19,12.30
2019,10,26,17,20,12.30
2019,10,26,17,21,12.30
2019,10,26,17,22,12.30
2019,10,26,17,23,12.30
2019,10,26,17,24,12.30
2019,10,26,17,25,12.20
2019,10,26,17,26,12.20
2019,10,26,17,27,12.20
2019,10,26,17,28,12.20
2019,10,26,17,29,12.10
2019,10,26,17,30,12.10
2019,10,26,17,31,12.10
2019,10,26,17,32,12.10
2019,10,26,17,33,12.10
2019,10,26,17,34,12.00
2019,10,26,17,35,12.00
2019,10,26,17,36,12.00
2019,10,26,17,37,12.00
2019,10,26,17,38,11.90
2019,10,26,17,39,11.90
2019,10,26,17,40,11.90
2019,10,26,17,41,11.90
2019,10,26,17,42,11.90
2019,10,26,17,43,11.80
2019,10,26,17,44,11.80
2019,10,26,17,45,11.80
2019,10,26,17,46,11.80